#timestamp,LO_Frequency,Hit,StdDev 
1551006015.3,286047000.1,N
1551006035.1,286047002.0,N
1551006055.9,286047004.0,N
1551006075.7,286047006.0,N
1551006095.5,286047001.6,N
1551006115.4,286047004.2,N
1551006135.2,286047004.5,N
1551006155.0,286047004.8,N
1551006156.0,286047004.8,N
1551006175.8,286047003.2,N
1551006195.6,286047005.9,N
1551006215.5,286047004.1,N
1551006235.3,286047004.7,N
1551006255.1,286047003.1,N
1551006275.9,286047004.1,N
1551006295.7,286047002.6,N
1551006315.6,286047000.3,N
1551006335.4,286046998.1,N
1551006355.2,286047001.8,N
1551006375.1,286047002.1,N
1551006376.0,286047002.1,N
1551006395.8,286047003.6,N
1551006415.6,286047003.5,N
1551006435.5,286047003.4,N
1551006455.3,286047004.0,N
1551006475.2,286047001.6,N
1551006495.9,286047002.6,N
1551006515.7,286047001.5,N
1551006535.6,286047000.8,N
1551006555.4,286046999.7,N
1551006575.2,286047003.5,N
1551006595.1,286047002.7,N
1551006596.0,286047002.7,N
1551006615.8,286047000.3,N
1551006635.7,286047000.2,N
1551006655.5,286047000.0,N
1551006675.3,286046999.4,N
1551006695.2,286046999.4,N
1551006715.0,286046997.9,N
1551006715.9,286046997.9,N
1551006735.8,286046997.6,N
1551006755.6,286047002.3,N
1551006775.4,286046999.1,N
1551006795.3,286046997.4,N
1551006815.1,286046996.9,N
1551006835.8,286047002.4,N
1551006855.7,286047001.7,N
1551006875.5,286047000.8,N
1551006895.4,286046998.8,N
1551006915.2,286046998.3,N
1551006935.0,286046999.0,N
1551006935.9,286046999.0,N
1551006955.8,286046997.9,N
1551006975.6,286046993.6,Y
1551006995.4,286046993.8,P
1551007015.3,286046995.7,N
1551007035.1,286046995.5,N
1551007055.9,286046997.0,N
1551007075.7,286046996.0,N
1551007095.5,286046993.4,Y
1551007115.4,286046999.2,P
1551007135.2,286046997.1,N
1551007155.1,286047001.0,N
1551007156.0,286047001.0,N
1551007175.8,286046997.2,N
1551007195.6,286046997.0,N
1551007215.5,286046997.6,N
1551007235.3,286046998.3,N
1551007255.1,286046998.3,N
1551007275.9,286047000.8,N
1551007295.7,286046999.8,N
1551007315.6,286047000.4,N
1551007335.4,286046999.7,N
1551007355.2,286047002.8,N
1551007375.1,286047000.6,N
1551007376.0,286047000.6,N
1551007395.8,286046997.0,N
1551007415.6,286046995.2,N
1551007435.5,286046994.8,N
1551007455.3,286046996.4,N
1551007475.2,286046993.7,N
1551007495.9,286046994.4,N
1551007515.7,286046992.9,N
1551007535.6,286046993.1,N
1551007555.4,286046995.9,N
1551007575.2,286046996.2,N
1551007595.1,286046999.2,N
1551007596.0,286046999.2,N
1551007615.8,286046999.4,N
1551007635.7,286046997.1,N
1551007655.5,286047000.8,N
1551007675.3,286047000.4,N
1551007695.2,286046999.3,N
1551007715.0,286046996.8,N
1551007715.9,286046996.8,N
1551007735.8,286046997.6,N
1551007755.6,286046995.9,N
1551007775.4,286046994.3,N
1551007795.3,286046993.8,N
1551007815.1,286046994.8,N
1551007835.8,286046996.3,N
1551007855.7,286046993.3,N
1551007875.5,286046995.1,N
1551007895.4,286046996.3,N
1551007915.2,286046997.5,N
1551007935.0,286046993.4,N
1551007935.9,286046993.4,Y
1551007955.8,286047000.5,P
1551007975.6,286046996.9,N
1551007995.4,286046998.7,N
1551008015.3,286046999.5,N
1551008035.1,286047002.6,N
1551008055.9,286046999.8,N
1551008075.7,286047000.8,N
1551008095.5,286047000.9,N
1551008115.4,286047002.0,N
1551008135.2,286047001.4,N
1551008155.1,286047002.0,N
1551008156.0,286047002.0,N
1551008175.8,286046999.7,N
1551008195.6,286046998.2,N
1551008215.5,286047000.0,N
1551008235.3,286047000.5,N
1551008255.2,286047011.9,Y
1551008275.9,286047002.7,P
1551008295.7,286047001.4,N
1551008315.6,286047004.2,P
1551008335.4,286047004.3,N
1551008355.2,286047001.5,N
1551008375.1,286047000.9,N
1551008376.0,286047000.9,N
1551008395.8,286047000.6,N
1551008415.7,286047001.8,N
1551008435.5,286047001.7,N
1551008455.3,286047003.7,N
1551008475.2,286047002.0,N
1551008495.0,286046998.5,N
1551008495.9,286046998.5,N
1551008515.8,286047000.4,N
1551008535.6,286047001.9,N
1551008555.4,286047003.2,N
1551008575.3,286047002.9,N
1551008595.1,286047005.6,Y
1551008615.8,286047005.1,P
1551008635.7,286047004.9,N
1551008655.5,286047003.4,N
1551008675.4,286047003.7,N
1551008695.2,286047003.2,N
1551008715.0,286047005.4,Y
1551008715.9,286047005.4,P
1551008735.8,286047004.2,P
1551008755.6,286047002.1,N
1551008775.5,286047001.1,N
1551008795.3,286046998.2,N
1551008815.1,286047000.7,N
1551008835.9,286046998.6,N
1551008855.7,286046997.7,N
1551008875.5,286046996.8,N
1551008895.4,286046993.5,N
1551008915.2,286046997.6,N
1551008935.1,286046996.9,N
1551008936.0,286046996.9,N
1551008955.8,286046998.2,N
1551008975.6,286047000.4,N
1551008995.5,286047000.0,N
1551009015.3,286047001.5,N
1551009035.2,286047001.4,N
1551009055.9,286047003.8,N
1551009075.7,286046999.7,N
1551009095.6,286046997.3,N
1551009115.4,286046997.4,N
1551009135.2,286046997.7,N
1551009155.1,286046994.9,N
1551009156.0,286046994.9,N
1551009175.8,286046992.1,N
1551009195.7,286046993.8,N
1551009215.5,286046993.7,N
1551009235.3,286046997.3,N
1551009255.2,286046999.7,N
1551009275.0,286047002.2,N
1551009275.9,286047002.2,N
1551009295.8,286047002.4,N
1551009315.6,286047002.6,N
1551009335.4,286047001.5,N
1551009355.3,286047002.0,N
1551009375.1,286047000.6,N
1551009395.8,286046996.5,N
1551009415.7,286046998.9,N
1551009435.5,286046998.2,N
1551009455.4,286046996.7,N
1551009475.2,286046997.7,N
1551009495.0,286046997.5,N
1551009495.9,286046997.5,N
1551009515.8,286046995.4,N
1551009535.6,286046995.0,N
1551009555.4,286046998.3,N
1551009575.3,286047002.5,N
1551009595.1,286047001.6,N
